Other Public Products
Issued by NWS Grand Forks, ND

Home | Current Version | Previous Version | Graphics & Text | Print | Product List | Glossary On
Versions: 1 2 3 4 5 6 7 8 9 10 11 12 13 14 15 16 17 18 19 20 21 22 23 24 25 26 27 28 29 30 31 32 33 34 35 36 37 38 39 40 41 42 43 44 45 46 47 48 49 50
000
FPUS83 KFGF 060210
OPUFGF
PRAIRIE TO PINES WEATHER ROUNDUP
NATIONAL WEATHER SERVICE EASTERN NORTH DAKOTA/GRAND FORKS ND
800 PM CST THU MAR 05 2015

 **SATELLITE DATA USED TO AUGMENT SKY COVER AT AUTOMATED STATIONS**
 *****  WEATHER ACROSS EASTERN NORTH DAKOTA  *****

CITY           SKY/WX    TMP DP  RH WIND       PRES   REMARKS
GRAND FORKS    CLEAR     18  10  71 S15       30.07F WCI   4
GRAND FORKS AF CLEAR     20  10  62 SW13      30.05F WCI   8
GRAND CITY NWS   N/A     18 N/A N/A S18         N/A  WCI   2
BUXTON         NOT AVBL
DEVILS LAKE    CLEAR     19  12  73 SW12      30.00F WCI   7
FARGO          CLEAR     18   7  62 S15       30.15F WCI   4
WAHPETON ARPT  CLEAR     14   9  79 S15       30.19F WCI  -1
$$

 *****  WEATHER ACROSS CENTRAL AND WESTERN NORTH DAKOTA  *****

CITY           SKY/WX    TMP DP  RH WIND       PRES   REMARKS
JAMESTOWN      CLEAR     19  11  70 S10       30.05F WCI   7
BISMARCK       CLEAR     28  12  51 SW5       30.06F WCI  23
MINOT          PTCLDY    27  13  55 SW14      29.96F WCI  16
MINOT AFB      PTCLDY    25  17  73 W15       29.96F WCI  12
GARRISON         N/A     20  11  68 W6        30.01F WCI  12
WILLISTON      CLOUDY    35  22  58 SW7       30.02R
DICKINSON      CLEAR     24  10  55 W7        30.04R WCI  16
HETTINGER      CLEAR     19   8  62 NW8       30.08S WCI   9
$$

 *****  OTHER OBSERVATIONS NORTHEAST NORTH DAKOTA  *****

CITY           SKY/WX    TMP DP  RH WIND       PRES   REMARKS
WALHALLA         N/A     25  14  63 SW17G24   29.95S WCI  11
LANGDON        NOT AVBL
CAVALIER       MOCLDY    25  14  63 SW16      29.98F WCI  12
GRAFTON        NOT AVBL
CANDO          CLOUDY    14  10  85 SW8       29.97F WCI   3
FORT TOTTEN    NOT AVBL
ROLLA          CLOUDY    19  10  68 SW21      29.91F WCI   3
RUGBY          FAIR      18  12  79 SW13      29.97F WCI   4
 ***** THE ABOVE OBSERVATIONS ARE NON NWS ARE NOT QUALITY
        CONTROLLED AND MAY MIS-REPORT RAIN FOR SNOW...
$$

 *****  OTHER OBSERVATIONS SOUTHEAST NORTH DAKOTA *****

CITY           SKY/WX    TMP DP  RH WIND       PRES   REMARKS
COOPERSTOWN    NOT AVBL
VALLEY CITY    FAIR      16  12  86 S13       30.07F WCI   2
OAKES            N/A     18  12  79 S13       30.11F WCI   4
GWINNER        CLEAR     18  10  73 S9        30.13F WCI   6
BUFFALO        NOT AVBL
WYNDMERE       NOT AVBL
 ***** THE ABOVE OBSERVATIONS ARE NON NWS ARE NOT QUALITY
       CONTROLLED AND MAY MIS-REPORT RAIN FOR SNOW...
$$

  *****  WEATHER ACROSS NORTHERN MINNESOTA  *****

CITY           SKY/WX    TMP DP  RH WIND       PRES   REMARKS
FLAG ISLAND    CLEAR     12   3  67 S16       30.00F WCI  -4
WARROAD        CLEAR     14   5  67 S15G22    30.03F WCI  -1
ROSEAU         CLEAR     16   7  67 S21       30.03F WCI  -2
HALLOCK        NOT AVBL
THF RVR FALLS  CLEAR     14   7  73 S18       30.08F WCI  -3
HALSTAD        NOT AVBL
FOSSTON        CLEAR     10   3  72 S20G25    30.12F WCI  -8
BAUDETTE       CLEAR     14   1  56 SW17G25   30.04F WCI  -3
WASKISH        FAIR      14  -2  48 S9        30.11F WCI   2
CROOKSTON      CLEAR     18   9  68 S18       30.11F WCI   2
$$
  *****  WEATHER ACROSS CENTRAL AND WEST MINNESOTA  *****

CITY           SKY/WX    TMP DP  RH WIND       PRES   REMARKS
BEMIDJI        CLEAR     11  -1  57 S12       30.14F WCI  -3
PARK RAPIDS    CLEAR      9  -2  61 S8        30.17F WCI  -3
WADENA         CLEAR      7   0  72 S8        30.20F WCI  -6
DETROIT LAKES  CLEAR     12   5  73 S8        30.17F WCI   1
MOORHEAD       CLEAR     16  10  79 S16       30.17F WCI   0
FERGUS FALLS   CLEAR     12   3  67 S15       30.23F WCI  -4
ELBOW LAKE     FAIR      12   5  73 S14       30.20F WCI  -3
MORRIS MN      CLEAR     10   3  72 SE10      30.22F WCI  -3
STAPLES        CLEAR      7   0  72 S6        30.23F WCI  -3
WHEATON        CLEAR     10   5  79 SE16      30.21F WCI  -7
$$
  *****  WEATHER ELSEWHERE ACROSS MINNESOTA  *****

CITY           SKY/WX    TMP DP  RH WIND       PRES   REMARKS
DULUTH         CLEAR      8  -6  52 SW13      30.23F WCI  -8
INTRNTL FALLS  PTCLDY    11  -5  48 S9G20     30.10F WCI  -2
ELY            CLEAR      7  -8  51 SW8       30.17S WCI  -6
CLOQUET        FAIR       9  -6  52 S9        30.24F WCI  -5
BRAINERD       CLEAR      5  -4  66 S9        30.25F WCI  -9
HIBBING        CLEAR      7  -7  52 SW8       30.20S WCI  -6
ALEXANDRIA     PTCLDY    12   2  64 S10       30.22F WCI  -1
SAINT CLOUD    CLEAR      3  -3  76 SE6       30.31F WCI  -8
MINNEAPOLIS    CLEAR     13   0  56 S10       30.38F WCI   0
$$

  *****  WEATHER ACROSS SOUTH DAKOTA  *****

CITY           SKY/WX    TMP DP  RH WIND       PRES   REMARKS
SIOUX FALLS    PTCLDY    26   6  42 S15       30.23F WCI  14
BROOKINGS      NOT AVBL
WATERTOWN      CLEAR     17   7  64 SE8       30.15F WCI   7
HURON          CLEAR     28   8  43 S9        30.15F WCI  19
SISSETON       NOT AVBL
ABERDEEN       CLEAR     12   6  77 S9        30.13F WCI   0
MITCHELL       CLEAR     26   7  44 S9        30.19F WCI  17
PIERRE         CLEAR     24  15  68 S5        30.10F WCI  18
MOBRIDGE       CLEAR     25  13  60 SE6       30.07R WCI  18
RAPID CITY     CLEAR     30  18  60 NW10      30.13R WCI  21
$$

  *****  SOME WEATHER IN NEARBY STATES *****

CITY           SKY/WX    TMP DP  RH WIND       PRES   REMARKS
GLASGOW MT     CLOUDY    38  18  44 W8        30.03F
GREAT FALLS MT PTCLDY    40  13  33 SW14      30.10S
CHEYENNE WY    PTCLDY    34  14  43 NW3       30.22R
SCOTTSBLUFF NE CLEAR     32  18  56 W6        30.22R
OMAHA NE       CLEAR     26   7  44 SE14      30.39F WCI  14
DES MOINES IA  CLEAR     20   2  45 SE6       30.47S WCI  12
DAVENPORT IA   PTCLDY     6  -3  66 CALM      30.55S
CHICAGO IL     CLEAR      9  -2  61 W7        30.53S WCI  -2
EAU CLAIRE WI  MOCLDY     4  -7  60 S7        30.40F WCI  -8
LA CROSSE WI   CLEAR      8  -3  61 SW8       30.48S WCI  -4
$$

  *****  SOME NATIONAL WEATHER *****

CITY           SKY/WX    TMP DP  RH WIND       PRES   REMARKS
LA GUARDIA NY  CLOUDY    24   6  46 NW16      30.30R WCI  11
RALEIGH NC     CLOUDY    33  28  81 NE14      30.29R WCI  23
ATLANTA GA     CLOUDY    33  26  75 NW15G24   30.27R WCI  23
NEW ORLEANS LA CLOUDY    38  27  64 N16G30    30.42R
OKLAHOMA CITY  CLEAR     31  13  47 S5        30.50R
ALBUQUERQUE NM CLEAR     48   9  20 N9        30.33R
SALT LAKE CITY PTCLDY    44  19  36 NE3       30.41R
LOS ANGELES CA CLEAR     64  36  35 W12       30.18S
BOISE ID       PTCLDY    50  20  30 CALM      30.33S
SEATTLE WA     CLOUDY    53  30  41 N3        30.37S
$$

*** WEATHER ACROSS MANITOBA...SASKATCHEWAN AND ONTARIO ***
                ***ONTARIO***

CITY           SKY/WX    TMP DP  RH WIND       PRES   REMARKS
GERALDTON      MOCLDY     3  -9  55 SW10      30.07F WCI -12
THUNDER BAY    PTCLDY     9   0  66 W6        30.21S WCI  -1
SIOUX LOOKOUT  MOCLDY    10  -8  44 SW13G21   30.00F WCI  -5
TORONTO        CLEAR      9  -4  56 NW12      30.45R WCI  -6
BIG TROUT LK   MOCLDY     7  -6  56 SW12      29.75F WCI  -9
PICKLE LAKE    MOCLDY     7  -9  47 SW13G20   29.89F WCI  -9
DRYDEN         CLEAR      7  -6  56 S13       29.99F WCI  -9
KENORA         MOCLDY    10   1  67 S14G22    29.97F WCI  -5
$$
                *** MANITOBA***

CITY           SKY/WX    TMP DP  RH WIND       PRES   REMARKS
BRANDON        PTCLDY    18  10  73 W22G29    29.89S WCI   0
DAUPHIN        NOT AVBL
ISLAND LAKE    FLURRIES  12  -4  48 SW9       29.71F WCI   0
PILOT MOUND      N/A     18  12  79 SW15        N/A  WCI   3
THE PAS        CLEAR     16   5  62 W8        29.80R WCI   5
THOMPSON       MOCLDY     9  -2  61 W8        29.68S WCI  -4
WINNIPEG       MOCLDY    18   9  68 S18       29.91F WCI   2
LYNN LAKE      MOCLDY    14   7  73 NW9       29.69R WCI   2
CHURCHILL      LGT SNOW   0  -4  85 SW6       29.59S WCI -12
GILLAM         MOCLDY     9  -2  61 SW13      29.64S WCI  -7
$$
                ***SASKATCHEWAN***

CITY           SKY/WX    TMP DP  RH WIND       PRES   REMARKS
ESTEVAN        MOCLDY    27  18  69 W14       29.97R WCI  15
KINDERSLEY     CLOUDY    27  19  74 W7        30.00R WCI  19
LLOYDMINSTER   NOT AVBL
PRINCE ALBERT  PTCLDY    25  12  58 W9        29.92R WCI  15
REGINA         PTCLDY    19  16  86 W13       29.98R WCI   7
YORKTON        CLEAR     16   9  73 W10       29.90R WCI   3


USA.gov is the U.S. government's official web portal to all federal, state and local government web resources and services.